User: anonymous   Login
Location: Igri�s
(42.2144°N, 0.4320°W)
Time: 09:18:09
(UTC+00:00)
Language:

Cosmos 1666 Rocket - Orbit

View from above orbital plane
View from above orbital plane
View from above satellite
View from above satellite

Ground track
Ground track

The orbit data is extracted from the following two-line orbital elements,

1 15890U 85058B   20293.89046488 +.00000091 +00000-0 +81084-5 0  9998
2 15890 082.5297 198.2290 0021503 152.1402 254.5526 14.83444846905880
Epoch (UTC): 19 October 2020 21:22:16
Eccentricity: 0.0021503
inclination: 82.5297°
perigee height: 603 km
apogee height: 633 km
right ascension of ascending node: 198.2290°
argument of perigee: 152.1402°
revolutions per day: 14.83444846
mean anomaly at epoch: 254.5526°
orbit number at epoch: 90588

The dashed part of the orbit path shows where the satellite is in the earth's shadow,  

DLR